• In Belarus
  • List of Countries
  • For 7 days
  • Water Temperature
  • Satellite Maps
  • Weather Map
  • Weather Widgets
  • user-avatar
    Login

    Hourly Weather Choybalsan

    Today, 17 January, Thursday

    Time Temperature Precipitation Wind Pressure Humidity
    00:00 -12°C° 0 mm 1 mps 693 mmHg 72%
    01:00 -15°C° 0 mm 2 mps 693 mmHg 73%
    02:00 -15°C° 0 mm 2 mps 693 mmHg 74%
    03:00 -15°C° 0 mm 2 mps 693 mmHg 75%
    04:00 -15°C° 0 mm 2 mps 692 mmHg 76%
    05:00 -16°C° 0 mm 2 mps 692 mmHg 77%
    06:00 -16°C° 0 mm 2 mps 692 mmHg 78%
    07:00 -17°C° 0 mm 2 mps 693 mmHg 79%
    08:00 -18°C° 0 mm 3 mps 693 mmHg 83%
    09:00 -18°C° 0 mm 3 mps 693 mmHg 80%
    10:00 -18°C° 0 mm 4 mps 693 mmHg 78%
    11:00 -18°C° 0 mm 4 mps 693 mmHg 76%
    12:00 -16°C° 0 mm 3 mps 693 mmHg 74%
    13:00 -16°C° 0 mm 3 mps 693 mmHg 71%
    14:00 -16°C° 0 mm 3 mps 693 mmHg 68%
    15:00 -16°C° 0 mm 3 mps 693 mmHg 71%
    16:00 -16°C° 0 mm 2 mps 694 mmHg 75%
    17:00 -17°C° 0 mm 2 mps 694 mmHg 78%
    18:00 -17°C° 0 mm 2 mps 694 mmHg 78%
    19:00 -18°C° 0 mm 2 mps 694 mmHg 78%
    20:00 -18°C° 0 mm 2 mps 695 mmHg 78%
    21:00 -19°C° 0 mm 2 mps 695 mmHg 79%
    22:00 -17°C° 0 mm 1 mps 695 mmHg 79%
    23:00 -17°C° 0 mm 1 mps 695 mmHg 79%

    Tomorrow, 18 January, Friday

    Time Temperature Precipitation Wind Pressure Humidity
    00:00 -19°C° 0 mm 2 mps 696 mmHg 81%
    01:00 -19°C° 0 mm 2 mps 696 mmHg 84%
    02:00 -19°C° 0 mm 2 mps 696 mmHg 86%
    03:00 -19°C° 0 mm 2 mps 697 mmHg 86%
    04:00 -19°C° 0 mm 3 mps 697 mmHg 86%
    05:00 -19°C° 0 mm 3 mps 697 mmHg 87%
    06:00 -19°C° 0 mm 3 mps 697 mmHg 86%
    07:00 -19°C° 0 mm 3 mps 697 mmHg 84%
    08:00 -18°C° 0 mm 3 mps 697 mmHg 83%
    09:00 -18°C° 0 mm 4 mps 697 mmHg 79%
    10:00 -17°C° 0 mm 4 mps 698 mmHg 76%
    11:00 -16°C° 0 mm 4 mps 698 mmHg 72%
    12:00 -15°C° 0 mm 4 mps 698 mmHg 68%
    13:00 -15°C° 0 mm 4 mps 698 mmHg 64%
    14:00 -14°C° 0 mm 4 mps 697 mmHg 61%
    15:00 -15°C° 0 mm 4 mps 697 mmHg 64%
    16:00 -15°C° 0 mm 4 mps 697 mmHg 67%
    17:00 -15°C° 0 mm 3 mps 697 mmHg 70%
    18:00 -16°C° 0 mm 4 mps 698 mmHg 69%
    19:00 -16°C° 0 mm 4 mps 698 mmHg 68%
    20:00 -17°C° 0 mm 4 mps 698 mmHg 68%
    21:00 -17°C° 0 mm 4 mps 698 mmHg 69%
    22:00 -17°C° 0 mm 4 mps 698 mmHg 70%
    23:00 -18°C° 0 mm 5 mps 698 mmHg 71%

    Day after tomorrow, 19 January, Saturday

    Time Temperature Precipitation Wind Pressure Humidity
    00:00 -18°C° 0 mm 5 mps 698 mmHg 72%
    01:00 -18°C° 0 mm 5 mps 698 mmHg 72%
    02:00 -18°C° 0 mm 5 mps 699 mmHg 73%
    03:00 -19°C° 0 mm 5 mps 698 mmHg 74%
    04:00 -19°C° 0 mm 5 mps 698 mmHg 74%
    05:00 -19°C° 0 mm 5 mps 698 mmHg 75%
    06:00 -19°C° 0 mm 5 mps 698 mmHg 75%
    07:00 -19°C° 0 mm 5 mps 699 mmHg 75%
    08:00 -19°C° 0 mm 5 mps 699 mmHg 75%
    09:00 -19°C° 0 mm 5 mps 699 mmHg 71%
    10:00 -18°C° 0 mm 5 mps 700 mmHg 67%
    11:00 -17°C° 0 mm 6 mps 700 mmHg 62%
    12:00 -17°C° 0 mm 5 mps 700 mmHg 60%
    13:00 -15°C° 0 mm 5 mps 700 mmHg 58%
    14:00 -15°C° 0 mm 5 mps 700 mmHg 55%
    15:00 -17°C° 0 mm 5 mps 700 mmHg 59%
    16:00 -16°C° 0 mm 4 mps 700 mmHg 62%
    17:00 -17°C° 0 mm 4 mps 700 mmHg 66%
    18:00 -17°C° 0 mm 4 mps 701 mmHg 66%
    19:00 -18°C° 0 mm 4 mps 701 mmHg 66%
    20:00 -18°C° 0 mm 4 mps 701 mmHg 67%
    21:00 -18°C° 0 mm 4 mps 701 mmHg 65%
    22:00 -18°C° 0 mm 4 mps 701 mmHg 64%
    23:00 -18°C° 0 mm 4 mps 701 mmHg 63%

    20 January, Sunday

    Time Temperature Precipitation Wind Pressure Humidity
    00:00 -18°C° 0 mm 5 mps 700 mmHg 62%
    01:00 -18°C° 0 mm 5 mps 700 mmHg 62%
    02:00 -18°C° 0 mm 6 mps 699 mmHg 62%
    03:00 -18°C° 0 mm 6 mps 699 mmHg 62%
    04:00 -18°C° 0 mm 6 mps 698 mmHg 61%
    05:00 -17°C° 0 mm 6 mps 698 mmHg 61%
    06:00 -17°C° 0 mm 6 mps 698 mmHg 59%
    07:00 -17°C° 0 mm 6 mps 697 mmHg 57%
    08:00 -17°C° 0 mm 6 mps 697 mmHg 55%
    09:00 -16°C° 0 mm 6 mps 697 mmHg 52%
    10:00 -15°C° 0 mm 6 mps 696 mmHg 50%
    11:00 -14°C° 0 mm 7 mps 696 mmHg 47%
    12:00 -12°C° 0 mm 6 mps 695 mmHg 45%
    13:00 -12°C° 0 mm 6 mps 695 mmHg 43%
    14:00 -11°C° 0 mm 6 mps 694 mmHg 41%
    15:00 -11°C° 0 mm 6 mps 694 mmHg 42%
    16:00 -12°C° 0 mm 5 mps 694 mmHg 44%
    17:00 -12°C° 0 mm 5 mps 694 mmHg 45%
    18:00 -12°C° 0 mm 5 mps 694 mmHg 46%
    19:00 -12°C° 0 mm 5 mps 695 mmHg 47%
    20:00 -12°C° 0 mm 5 mps 695 mmHg 48%
    21:00 -12°C° 0 mm 5 mps 695 mmHg 48%
    22:00 -12°C° 0 mm 5 mps 695 mmHg 48%
    23:00 -12°C° 0 mm 5 mps 695 mmHg 49%

    21 January, Monday

    Time Temperature Precipitation Wind Pressure Humidity
    00:00 -12°C° 0 mm 5 mps 695 mmHg 50%
    01:00 -12°C° 0 mm 5 mps 695 mmHg 52%
    02:00 -12°C° 0 mm 5 mps 695 mmHg 54%
    03:00 -13°C° 0 mm 5 mps 695 mmHg 56%
    04:00 -13°C° 0 mm 5 mps 695 mmHg 57%
    05:00 -13°C° 0 mm 5 mps 695 mmHg 59%
    06:00 -14°C° 0 mm 5 mps 695 mmHg 61%
    07:00 -14°C° 0 mm 4 mps 696 mmHg 63%
    08:00 -14°C° 0 mm 4 mps 696 mmHg 65%
    09:00 -14°C° 0 mm 4 mps 697 mmHg 63%
    10:00 -12°C° 0 mm 4 mps 697 mmHg 62%
    11:00 -10°C° 0 mm 3 mps 698 mmHg 60%
    12:00 -10°C° 0 mm 3 mps 698 mmHg 58%
    13:00 -9°C° 0 mm 3 mps 698 mmHg 57%
    14:00 -7°C° 0 mm 2 mps 698 mmHg 55%
    15:00 -8°C° 0 mm 2 mps 698 mmHg 58%
    16:00 -9°C° 0 mm 2 mps 698 mmHg 60%
    17:00 -9°C° 0 mm 2 mps 698 mmHg 62%
    18:00 -9°C° 0 mm 2 mps 698 mmHg 61%
    19:00 -10°C° 0 mm 2 mps 698 mmHg 59%
    20:00 -10°C° 0 mm 2 mps 698 mmHg 57%
    21:00 -12°C° 0 mm 3 mps 698 mmHg 55%
    22:00 -12°C° 0 mm 3 mps 698 mmHg 53%
    23:00 -12°C° 0 mm 3 mps 698 mmHg 51%

    22 January, Tuesday

    Time Temperature Precipitation Wind Pressure Humidity
    00:00 -13°C° 0 mm 3 mps 698 mmHg 52%
    01:00 -13°C° 0 mm 3 mps 698 mmHg 53%
    02:00 -13°C° 0 mm 3 mps 698 mmHg 54%
    03:00 -13°C° 0 mm 3 mps 697 mmHg 55%
    04:00 -13°C° 0 mm 3 mps 697 mmHg 57%
    05:00 -13°C° 0 mm 3 mps 697 mmHg 58%
    06:00 -13°C° 0 mm 3 mps 697 mmHg 58%
    07:00 -13°C° 0 mm 3 mps 698 mmHg 58%
    08:00 -13°C° 0 mm 3 mps 698 mmHg 58%
    09:00 -12°C° 0 mm 3 mps 698 mmHg 55%
    10:00 -10°C° 0 mm 3 mps 698 mmHg 53%
    11:00 -10°C° 0 mm 3 mps 698 mmHg 51%
    12:00 -9°C° 0 mm 3 mps 698 mmHg 50%
    13:00 -7°C° 0 mm 2 mps 698 mmHg 49%
    14:00 -6°C° 0 mm 2 mps 697 mmHg 49%
    15:00 -7°C° 0 mm 2 mps 697 mmHg 51%
    16:00 -7°C° 0 mm 2 mps 697 mmHg 53%
    17:00 -8°C° 0 mm 2 mps 697 mmHg 55%
    18:00 -8°C° 0 mm 2 mps 697 mmHg 55%
    19:00 -9°C° 0 mm 2 mps 697 mmHg 55%
    20:00 -9°C° 0 mm 2 mps 697 mmHg 55%
    21:00 -9°C° 0 mm 2 mps 696 mmHg 54%
    22:00 -9°C° 0 mm 2 mps 696 mmHg 53%
    23:00 -9°C° 0 mm 2 mps 696 mmHg 52%
    Show more